Time,TemperatureF,DewpointF,PressureIn,WindDirection,WindDirectionDegrees,WindSpeedMPH,WindSpeedGustMPH,Humidity,HourlyPrecipIn,Conditions,Clouds,dailyrainin,SolarRadiationWatts/m^2,SoftwareType,DateUTC
2013-10-16 00:00:00,48.4,45.6,29.74,SSW,209,3.0,7.0,90,0.00,,---,0.00,0.00,VWS V14.01,2013-10-16 05:00:00,
2013-10-16 00:01:00,48.4,45.6,29.74,SSW,207,4.0,5.0,90,0.00,,---,0.00,0.00,VWS V14.01,2013-10-16 05:01:00,
2013-10-16 00:06:00,48.3,45.5,29.74,SSW,206,2.0,7.0,90,0.00,,---,0.00,0.00,VWS V14.01,2013-10-16 05:06:00,
2013-10-16 00:11:00,48.2,45.4,29.74,SW,224,3.0,7.0,90,0.00,,---,0.00,0.00,VWS V14.01,2013-10-16 05:11:00,
2013-10-16 00:16:00,48.2,45.7,29.74,WSW,245,5.0,7.0,91,0.00,,---,0.00,0.00,VWS V14.01,2013-10-16 05:16:00,
2013-10-16 00:21:00,48.2,45.7,29.74,SW,220,2.0,7.0,91,0.00,,---,0.00,0.00,VWS V14.01,2013-10-16 05:21:00,
2013-10-16 00:26:00,48.1,45.6,29.74,SW,218,4.0,7.0,91,0.00,,---,0.00,0.00,VWS V14.01,2013-10-16 05:26:00,
2013-10-16 00:31:00,48.1,45.9,29.74,SSW,204,2.0,7.0,92,0.00,,---,0.00,0.00,VWS V14.01,2013-10-16 05:31:00,
2013-10-16 00:36:00,48.1,45.9,29.74,SSW,207,4.0,7.0,92,0.00,,---,0.00,0.00,VWS V14.01,2013-10-16 05:36:00,
2013-10-16 00:41:00,48.0,45.8,29.74,WSW,241,5.0,7.0,92,0.00,,---,0.00,0.00,VWS V14.01,2013-10-16 05:41:00,
2013-10-16 00:46:00,48.0,46.1,29.74,SSW,209,2.0,7.0,93,0.00,,---,0.00,0.00,VWS V14.01,2013-10-16 05:46:00,
2013-10-16 00:51:00,48.1,46.2,29.74,SW,231,3.0,7.0,93,0.00,,---,0.00,0.00,VWS V14.01,2013-10-16 05:51:00,
2013-10-16 00:56:00,48.1,46.2,29.74,SSW,203,4.0,7.0,93,0.00,,---,0.00,0.00,VWS V14.01,2013-10-16 05:56:00,
2013-10-16 01:00:00,48.1,46.2,29.74,SSW,207,3.0,7.0,93,0.00,,---,0.00,0.00,VWS V14.01,2013-10-16 06:00:00,
2013-10-16 01:01:00,48.1,46.2,29.75,SSW,205,5.0,5.0,93,0.00,,---,0.00,0.00,VWS V14.01,2013-10-16 06:01:00,
2013-10-16 01:06:00,48.1,46.2,29.74,SW,218,1.0,5.0,93,0.00,,---,0.00,0.00,VWS V14.01,2013-10-16 06:06:00,
2013-10-16 01:11:00,48.2,46.3,29.74,SSW,204,4.0,5.0,93,0.00,,---,0.00,0.00,VWS V14.01,2013-10-16 06:11:00,
2013-10-16 01:16:00,48.2,46.3,29.74,SSW,204,2.0,5.0,93,0.00,,---,0.00,0.00,VWS V14.01,2013-10-16 06:16:00,
2013-10-16 01:21:00,48.2,46.3,29.74,SSW,202,2.0,5.0,93,0.00,,---,0.00,0.00,VWS V14.01,2013-10-16 06:21:00,
2013-10-16 01:26:00,48.3,46.4,29.74,SSW,201,2.0,5.0,93,0.00,,---,0.00,0.00,VWS V14.01,2013-10-16 06:26:00,
2013-10-16 01:31:00,48.3,46.4,29.74,SSW,200,3.0,5.0,93,0.00,,---,0.00,0.00,VWS V14.01,2013-10-16 06:31:00,
2013-10-16 01:36:00,48.4,46.5,29.74,WSW,244,3.0,7.0,93,0.00,,---,0.00,0.00,VWS V14.01,2013-10-16 06:36:00,
2013-10-16 01:41:00,48.4,46.5,29.75,SSW,202,2.0,7.0,93,0.00,,---,0.00,0.00,VWS V14.01,2013-10-16 06:41:00,
2013-10-16 01:46:00,48.4,46.5,29.75,SSW,212,4.0,7.0,93,0.00,,---,0.00,0.00,VWS V14.01,2013-10-16 06:46:00,
2013-10-16 01:51:00,48.4,46.5,29.74,WSW,258,5.0,7.0,93,0.00,,---,0.00,0.00,VWS V14.01,2013-10-16 06:51:00,
2013-10-16 01:56:00,48.4,46.5,29.74,SSW,211,3.0,7.0,93,0.00,,---,0.00,0.00,VWS V14.01,2013-10-16 06:56:00,
2013-10-16 02:00:00,48.4,46.5,29.74,SSW,208,2.0,7.0,93,0.00,,---,0.00,0.00,VWS V14.01,2013-10-16 07:00:00,
2013-10-16 02:01:00,48.4,46.5,29.74,SSW,203,3.0,5.0,93,0.00,,---,0.00,0.00,VWS V14.01,2013-10-16 07:01:00,
2013-10-16 02:06:00,48.4,46.5,29.74,SW,235,4.0,6.0,93,0.00,,---,0.00,0.00,VWS V14.01,2013-10-16 07:06:00,
2013-10-16 02:11:00,48.5,46.6,29.74,SSW,192,5.0,6.0,93,0.00,,---,0.00,0.00,VWS V14.01,2013-10-16 07:11:00,
2013-10-16 02:16:00,48.5,46.6,29.74,SW,225,3.0,7.0,93,0.00,,---,0.00,0.00,VWS V14.01,2013-10-16 07:16:00,
2013-10-16 02:21:00,48.5,46.6,29.74,SW,227,4.0,7.0,93,0.00,,---,0.00,0.00,VWS V14.01,2013-10-16 07:21:00,
2013-10-16 02:26:00,48.5,46.6,29.74,WSW,252,3.0,7.0,93,0.00,,---,0.00,0.00,VWS V14.01,2013-10-16 07:26:00,
2013-10-16 02:31:00,48.5,46.6,29.74,SSW,209,3.0,7.0,93,0.00,,---,0.00,0.00,VWS V14.01,2013-10-16 07:31:00,
2013-10-16 02:36:00,48.5,46.6,29.74,SSW,201,3.0,7.0,93,0.00,,---,0.00,0.00,VWS V14.01,2013-10-16 07:36:00,
2013-10-16 02:41:00,48.5,46.6,29.74,SSW,205,2.0,7.0,93,0.00,,---,0.00,0.00,VWS V14.01,2013-10-16 07:41:00,
2013-10-16 02:46:00,48.6,46.7,29.74,SSW,200,4.0,7.0,93,0.00,,---,0.00,0.00,VWS V14.01,2013-10-16 07:46:00,
2013-10-16 02:51:00,48.5,46.6,29.74,SW,215,3.0,7.0,93,0.00,,---,0.00,0.00,VWS V14.01,2013-10-16 07:51:00,
2013-10-16 02:56:00,48.6,46.7,29.74,SW,215,4.0,7.0,93,0.00,,---,0.00,0.00,VWS V14.01,2013-10-16 07:56:00,
2013-10-16 03:00:00,48.6,46.7,29.74,SW,215,3.0,7.0,93,0.00,,---,0.00,0.00,VWS V14.01,2013-10-16 08:00:00,
2013-10-16 03:01:00,48.6,46.7,29.74,SW,227,3.0,4.0,93,0.00,,---,0.00,0.00,VWS V14.01,2013-10-16 08:01:00,
2013-10-16 03:06:00,48.6,46.7,29.74,SSW,211,4.0,6.0,93,0.00,,---,0.00,0.00,VWS V14.01,2013-10-16 08:06:00,
2013-10-16 03:11:00,48.6,46.7,29.74,SSW,200,1.0,6.0,93,0.00,,---,0.00,0.00,VWS V14.01,2013-10-16 08:11:00,
2013-10-16 03:16:00,48.6,46.7,29.74,SW,229,2.0,6.0,93,0.00,,---,0.00,0.00,VWS V14.01,2013-10-16 08:16:00,
2013-10-16 03:21:00,48.5,46.6,29.74,SW,235,2.0,6.0,93,0.00,,---,0.00,0.00,VWS V14.01,2013-10-16 08:21:00,
2013-10-16 03:26:00,48.5,46.9,29.74,WSW,242,2.0,6.0,94,0.00,,---,0.00,0.00,VWS V14.01,2013-10-16 08:26:00,
2013-10-16 03:31:00,48.5,46.9,29.74,SSW,209,2.0,6.0,94,0.00,,---,0.00,0.00,VWS V14.01,2013-10-16 08:31:00,
2013-10-16 03:36:00,48.5,46.9,29.74,SSW,202,4.0,6.0,94,0.00,,---,0.00,0.00,VWS V14.01,2013-10-16 08:36:00,
2013-10-16 03:41:00,48.5,46.9,29.74,SW,224,3.0,6.0,94,0.00,,---,0.00,0.00,VWS V14.01,2013-10-16 08:41:00,
2013-10-16 03:46:00,48.5,46.9,29.74,SSW,205,3.0,6.0,94,0.00,,---,0.00,0.00,VWS V14.01,2013-10-16 08:46:00,
2013-10-16 03:51:00,48.5,46.9,29.74,WSW,240,3.0,6.0,94,0.00,,---,0.00,0.00,VWS V14.01,2013-10-16 08:51:00,
2013-10-16 03:56:00,48.5,46.9,29.74,WSW,243,3.0,6.0,94,0.00,,---,0.00,0.00,VWS V14.01,2013-10-16 08:56:00,
2013-10-16 04:00:00,48.5,46.9,29.74,WSW,237,3.0,6.0,94,0.00,,---,0.00,0.00,VWS V14.01,2013-10-16 09:00:00,
2013-10-16 04:01:00,48.5,46.9,29.74,SSW,212,2.0,4.0,94,0.00,,---,0.00,0.00,VWS V14.01,2013-10-16 09:01:00,
2013-10-16 04:06:00,48.5,46.9,29.74,WSW,241,2.0,4.0,94,0.00,,---,0.00,0.00,VWS V14.01,2013-10-16 09:06:00,
2013-10-16 04:11:00,48.5,46.9,29.74,SW,218,2.0,4.0,94,0.00,,---,0.00,0.00,VWS V14.01,2013-10-16 09:11:00,
2013-10-16 04:16:00,48.5,46.9,29.74,SW,217,1.0,4.0,94,0.00,,---,0.00,0.00,VWS V14.01,2013-10-16 09:16:00,
2013-10-16 04:21:00,48.5,46.9,29.74,SW,227,2.0,5.0,94,0.00,,---,0.00,0.00,VWS V14.01,2013-10-16 09:21:00,
2013-10-16 04:26:00,48.5,46.9,29.75,West,263,1.0,5.0,94,0.00,,---,0.00,0.00,VWS V14.01,2013-10-16 09:26:00,
2013-10-16 04:31:00,48.5,46.9,29.75,WSW,258,0.0,5.0,94,0.00,,---,0.00,0.00,VWS V14.01,2013-10-16 09:31:00,
2013-10-16 04:36:00,48.5,46.9,29.75,SW,234,4.0,5.0,94,0.00,,---,0.00,0.00,VWS V14.01,2013-10-16 09:36:00,
2013-10-16 04:41:00,48.6,47.0,29.75,WSW,252,0.0,5.0,94,0.00,,---,0.00,0.00,VWS V14.01,2013-10-16 09:41:00,
2013-10-16 04:46:00,48.6,47.0,29.75,WSW,252,3.0,5.0,94,0.00,,---,0.00,0.00,VWS V14.01,2013-10-16 09:46:00,
2013-10-16 04:51:00,48.6,47.2,29.75,WSW,240,1.0,5.0,95,0.00,,---,0.00,0.00,VWS V14.01,2013-10-16 09:51:00,
2013-10-16 04:56:00,48.6,47.2,29.75,WSW,254,1.0,5.0,95,0.00,,---,0.00,0.00,VWS V14.01,2013-10-16 09:56:00,
2013-10-16 05:00:00,48.7,47.3,29.75,WSW,254,1.0,5.0,95,0.00,,---,0.00,0.00,VWS V14.01,2013-10-16 10:00:00,
2013-10-16 05:01:00,48.7,47.3,29.75,SW,227,1.0,4.0,95,0.00,,---,0.00,0.00,VWS V14.01,2013-10-16 10:01:00,
2013-10-16 05:06:00,48.7,47.3,29.75,SW,236,1.0,4.0,95,0.00,,---,0.00,0.00,VWS V14.01,2013-10-16 10:06:00,
2013-10-16 05:11:00,48.7,47.3,29.75,SW,236,0.0,4.0,95,0.00,,---,0.00,0.00,VWS V14.01,2013-10-16 10:11:00,
2013-10-16 05:16:00,48.7,47.3,29.75,SSW,213,2.0,4.0,95,0.00,,---,0.00,0.00,VWS V14.01,2013-10-16 10:16:00,
2013-10-16 05:21:00,48.8,47.4,29.75,SW,230,2.0,4.0,95,0.00,,---,0.00,0.00,VWS V14.01,2013-10-16 10:21:00,
2013-10-16 05:26:00,48.8,47.4,29.75,SW,232,1.0,5.0,95,0.00,,---,0.00,0.00,VWS V14.01,2013-10-16 10:26:00,
2013-10-16 05:31:00,48.8,47.4,29.75,SW,232,2.0,5.0,95,0.00,,---,0.00,0.00,VWS V14.01,2013-10-16 10:31:00,
2013-10-16 05:36:00,48.8,47.4,29.75,WSW,254,2.0,5.0,95,0.00,,---,0.00,0.00,VWS V14.01,2013-10-16 10:36:00,
2013-10-16 05:41:00,48.9,47.5,29.75,WSW,246,3.0,5.0,95,0.00,,---,0.00,0.00,VWS V14.01,2013-10-16 10:41:00,
2013-10-16 05:46:00,48.9,47.5,29.75,SW,227,3.0,5.0,95,0.00,,---,0.00,0.00,VWS V14.01,2013-10-16 10:46:00,
2013-10-16 05:51:00,48.9,47.5,29.75,WSW,244,1.0,5.0,95,0.00,,---,0.00,0.00,VWS V14.01,2013-10-16 10:51:00,
2013-10-16 05:56:00,49.0,47.6,29.76,SW,215,1.0,5.0,95,0.00,,---,0.00,0.00,VWS V14.01,2013-10-16 10:56:00,
2013-10-16 06:00:00,49.0,47.6,29.76,WSW,240,1.0,5.0,95,0.00,,---,0.00,0.00,VWS V14.01,2013-10-16 11:00:00,
2013-10-16 06:01:00,49.0,47.6,29.76,WSW,240,2.0,2.0,95,0.00,,---,0.00,0.00,VWS V14.01,2013-10-16 11:01:00,
2013-10-16 06:06:00,49.0,47.6,29.76,SW,229,2.0,3.0,95,0.00,,---,0.00,0.00,VWS V14.01,2013-10-16 11:06:00,
2013-10-16 06:11:00,49.0,47.6,29.76,SW,236,1.0,4.0,95,0.00,,---,0.00,0.00,VWS V14.01,2013-10-16 11:11:00,
2013-10-16 06:16:00,49.0,47.6,29.76,SW,229,2.0,4.0,95,0.00,,---,0.00,0.00,VWS V14.01,2013-10-16 11:16:00,
2013-10-16 06:21:00,49.1,47.7,29.76,WSW,238,1.0,4.0,95,0.00,,---,0.00,0.00,VWS V14.01,2013-10-16 11:21:00,
2013-10-16 06:26:00,49.1,47.7,29.76,SW,231,1.0,4.0,95,0.00,,---,0.00,0.00,VWS V14.01,2013-10-16 11:26:00,
2013-10-16 06:31:00,49.1,47.7,29.76,SW,231,0.0,4.0,95,0.00,,---,0.00,0.00,VWS V14.01,2013-10-16 11:31:00,
2013-10-16 06:36:00,49.2,47.8,29.76,SW,231,2.0,4.0,95,0.00,,---,0.00,0.00,VWS V14.01,2013-10-16 11:36:00,
2013-10-16 06:41:00,49.2,47.8,29.76,WSW,244,1.0,4.0,95,0.00,,---,0.00,0.00,VWS V14.01,2013-10-16 11:41:00,
2013-10-16 06:46:00,49.3,47.9,29.76,SW,220,2.0,4.0,95,0.00,,---,0.00,0.00,VWS V14.01,2013-10-16 11:46:00,
2013-10-16 06:51:00,49.3,47.9,29.77,WSW,242,2.0,4.0,95,0.00,,---,0.00,0.00,VWS V14.01,2013-10-16 11:51:00,
2013-10-16 06:56:00,49.4,48.0,29.77,SW,233,2.0,4.0,95,0.00,,---,0.00,0.00,VWS V14.01,2013-10-16 11:56:00,
2013-10-16 07:00:00,49.4,48.0,29.77,SW,233,2.0,4.0,95,0.00,,---,0.00,0.00,VWS V14.01,2013-10-16 12:00:00,
2013-10-16 07:01:00,49.4,48.0,29.77,SW,233,1.0,2.0,95,0.00,,---,0.00,0.00,VWS V14.01,2013-10-16 12:01:00,
2013-10-16 07:06:00,49.4,48.0,29.77,SW,233,0.0,2.0,95,0.00,,---,0.00,0.00,VWS V14.01,2013-10-16 12:06:00,
2013-10-16 07:11:00,49.4,48.0,29.77,SW,233,1.0,2.0,95,0.00,,---,0.00,0.00,VWS V14.01,2013-10-16 12:11:00,
2013-10-16 07:16:00,49.4,48.0,29.77,SW,233,0.0,2.0,95,0.00,,---,0.00,0.00,VWS V14.01,2013-10-16 12:16:00,
2013-10-16 07:21:00,49.4,48.0,29.77,SSW,202,1.0,2.0,95,0.00,,---,0.00,0.00,VWS V14.01,2013-10-16 12:21:00,
2013-10-16 07:26:00,49.3,47.9,29.77,WSW,250,0.0,2.0,95,0.00,,---,0.00,0.00,VWS V14.01,2013-10-16 12:26:00,
2013-10-16 07:31:00,49.3,47.9,29.78,WSW,250,0.0,2.0,95,0.00,,---,0.00,0.00,VWS V14.01,2013-10-16 12:31:00,
2013-10-16 07:35:00,49.4,48.0,29.78,WSW,250,0.0,2.0,95,0.00,,---,0.00,0.00,VWS V14.01,2013-10-16 12:35:00,
2013-10-16 07:41:00,49.4,48.0,29.78,WSW,250,0.0,2.0,95,0.00,,---,0.00,0.00,VWS V14.01,2013-10-16 12:41:00,
2013-10-16 07:45:00,49.4,48.0,29.78,SW,217,0.0,2.0,95,0.00,,---,0.00,9.00,VWS V14.01,2013-10-16 12:45:00,
2013-10-16 07:50:00,49.4,48.0,29.78,SW,223,1.0,4.0,95,0.00,,---,0.00,11.00,VWS V14.01,2013-10-16 12:50:00,
2013-10-16 07:55:00,49.4,48.0,29.78,SW,223,1.0,4.0,95,0.00,,---,0.00,12.00,VWS V14.01,2013-10-16 12:55:00,
2013-10-16 08:00:00,49.4,48.3,29.79,SW,223,0.0,0.0,96,0.00,,---,0.00,14.00,VWS V14.01,2013-10-16 13:00:00,
2013-10-16 08:05:00,49.4,48.3,29.78,SW,223,0.0,1.0,96,0.00,,---,0.00,18.00,VWS V14.01,2013-10-16 13:05:00,
2013-10-16 08:10:00,49.5,48.4,29.78,SW,223,0.0,1.0,96,0.00,,---,0.00,25.00,VWS V14.01,2013-10-16 13:10:00,
2013-10-16 08:15:00,49.5,48.4,29.79,SW,223,0.0,1.0,96,0.00,,---,0.00,32.00,VWS V14.01,2013-10-16 13:15:00,
2013-10-16 08:20:00,49.5,48.4,29.79,SW,223,1.0,2.0,96,0.00,,---,0.00,35.00,VWS V14.01,2013-10-16 13:20:00,
2013-10-16 08:25:00,49.6,48.5,29.79,SW,229,1.0,2.0,96,0.00,,---,0.00,44.00,VWS V14.01,2013-10-16 13:25:00,
2013-10-16 08:30:00,49.7,48.6,29.79,WSW,253,4.0,4.0,96,0.00,,---,0.00,47.00,VWS V14.01,2013-10-16 13:30:00,
2013-10-16 08:35:00,49.7,48.6,29.79,SSW,209,1.0,4.0,96,0.00,,---,0.00,47.00,VWS V14.01,2013-10-16 13:35:00,
2013-10-16 08:40:00,49.7,48.6,29.79,NNW,330,2.0,6.0,96,0.00,,---,0.00,42.00,VWS V14.01,2013-10-16 13:40:00,
2013-10-16 08:45:00,49.7,48.6,29.79,WNW,288,3.0,6.0,96,0.00,,---,0.00,32.00,VWS V14.01,2013-10-16 13:45:00,
2013-10-16 08:50:00,49.7,48.6,29.80,West,272,0.0,6.0,96,0.00,,---,0.00,28.00,VWS V14.01,2013-10-16 13:50:00,
2013-10-16 08:55:00,49.6,48.5,29.80,NNW,347,0.0,6.0,96,0.00,,---,0.00,44.00,VWS V14.01,2013-10-16 13:55:00,
2013-10-16 09:00:00,49.5,48.1,29.80,WNW,283,3.0,4.0,95,0.00,,---,0.00,54.00,VWS V14.01,2013-10-16 14:00:00,
2013-10-16 09:05:00,49.4,48.0,29.80,NNW,341,1.0,5.0,95,0.00,,---,0.00,53.00,VWS V14.01,2013-10-16 14:05:00,
2013-10-16 09:10:00,49.3,47.9,29.80,NW,324,0.0,6.0,95,0.00,,---,0.00,56.00,VWS V14.01,2013-10-16 14:10:00,
2013-10-16 09:15:00,49.3,47.9,29.81,SW,218,0.0,7.0,95,0.00,,---,0.00,72.00,VWS V14.01,2013-10-16 14:15:00,
2013-10-16 09:20:00,49.3,47.7,29.81,North,349,2.0,9.0,94,0.00,,---,0.00,65.00,VWS V14.01,2013-10-16 14:20:00,
2013-10-16 09:25:00,49.4,47.8,29.81,NNW,336,0.0,9.0,94,0.00,,---,0.00,53.00,VWS V14.01,2013-10-16 14:25:00,
2013-10-16 09:30:00,49.4,47.5,29.81,WSW,255,0.0,9.0,93,0.00,,---,0.00,35.00,VWS V14.01,2013-10-16 14:30:00,
2013-10-16 09:35:00,49.5,47.6,29.82,WNW,294,2.0,9.0,93,0.00,,---,0.00,37.00,VWS V14.01,2013-10-16 14:35:00,
2013-10-16 09:40:00,49.4,47.5,29.82,West,273,0.0,9.0,93,0.00,,---,0.00,42.00,VWS V14.01,2013-10-16 14:40:00,
2013-10-16 09:45:00,49.4,47.5,29.82,WNW,296,1.0,9.0,93,0.00,,---,0.00,44.00,VWS V14.01,2013-10-16 14:45:00,
2013-10-16 09:50:00,49.4,47.5,29.82,West,277,0.0,9.0,93,0.00,,---,0.00,46.00,VWS V14.01,2013-10-16 14:50:00,
2013-10-16 09:55:00,49.4,47.5,29.82,West,267,3.0,9.0,93,0.00,,---,0.00,47.00,VWS V14.01,2013-10-16 14:55:00,
2013-10-16 10:00:00,49.4,47.5,29.82,North,355,0.0,3.0,93,0.00,,---,0.00,63.00,VWS V14.01,2013-10-16 15:00:00,
2013-10-16 10:05:00,49.4,47.2,29.83,WNW,286,2.0,6.0,92,0.00,,---,0.00,77.00,VWS V14.01,2013-10-16 15:05:00,
2013-10-16 10:10:00,49.5,47.3,29.83,WNW,286,2.0,6.0,92,0.00,,---,0.00,83.00,VWS V14.01,2013-10-16 15:10:00,
2013-10-16 10:15:00,49.6,47.4,29.83,North,11,2.0,6.0,92,0.00,,---,0.00,79.00,VWS V14.01,2013-10-16 15:15:00,
2013-10-16 10:20:00,49.7,47.5,29.83,NW,313,0.0,6.0,92,0.00,,---,0.00,84.00,VWS V14.01,2013-10-16 15:20:00,
2013-10-16 10:25:00,49.7,47.5,29.83,NW,324,2.0,6.0,92,0.00,,---,0.00,83.00,VWS V14.01,2013-10-16 15:25:00,
2013-10-16 10:30:00,49.6,47.4,29.83,North,11,4.0,6.0,92,0.00,,---,0.00,91.00,VWS V14.01,2013-10-16 15:30:00,
2013-10-16 10:35:00,49.7,47.5,29.83,NNW,334,3.0,6.0,92,0.00,,---,0.00,91.00,VWS V14.01,2013-10-16 15:35:00,
2013-10-16 10:40:00,49.7,47.2,29.83,North,355,6.0,6.0,91,0.00,,---,0.00,97.00,VWS V14.01,2013-10-16 15:40:00,
2013-10-16 10:45:00,49.7,47.2,29.83,NNW,344,3.0,7.0,91,0.00,,---,0.00,98.00,VWS V14.01,2013-10-16 15:45:00,
2013-10-16 10:50:00,49.8,47.3,29.83,SW,236,2.0,7.0,91,0.00,,---,0.00,93.00,VWS V14.01,2013-10-16 15:50:00,
2013-10-16 10:55:00,49.8,47.3,29.83,WNW,289,3.0,7.0,91,0.00,,---,0.00,76.00,VWS V14.01,2013-10-16 15:55:00,
2013-10-16 11:00:00,49.9,47.4,29.84,West,266,5.0,5.0,91,0.00,,---,0.00,74.00,VWS V14.01,2013-10-16 16:00:00,
2013-10-16 11:05:00,49.9,47.4,29.84,WSW,242,0.0,5.0,91,0.00,,---,0.00,76.00,VWS V14.01,2013-10-16 16:05:00,
2013-10-16 11:10:00,49.9,47.4,29.84,North,350,1.0,6.0,91,0.00,,---,0.00,74.00,VWS V14.01,2013-10-16 16:10:00,
2013-10-16 11:15:00,50.0,47.5,29.84,North,355,1.0,6.0,91,0.00,,---,0.00,86.00,VWS V14.01,2013-10-16 16:15:00,
2013-10-16 11:20:00,50.0,47.5,29.84,WNW,293,3.0,6.0,91,0.00,,---,0.00,102.00,VWS V14.01,2013-10-16 16:20:00,
2013-10-16 11:25:00,49.9,47.4,29.84,WNW,294,3.0,6.0,91,0.00,,---,0.00,86.00,VWS V14.01,2013-10-16 16:25:00,
2013-10-16 11:30:00,49.8,47.3,29.84,North,360,5.0,7.0,91,0.00,,---,0.00,104.00,VWS V14.01,2013-10-16 16:30:00,
2013-10-16 11:35:00,49.7,47.2,29.84,West,271,2.0,7.0,91,0.00,,---,0.00,109.00,VWS V14.01,2013-10-16 16:35:00,
2013-10-16 11:40:00,49.8,47.3,29.84,North,355,2.0,7.0,91,0.00,,---,0.00,114.00,VWS V14.01,2013-10-16 16:40:00,
2013-10-16 11:45:00,49.8,47.3,29.84,NW,324,2.0,8.0,91,0.00,,---,0.00,107.00,VWS V14.01,2013-10-16 16:45:00,
2013-10-16 11:50:00,49.7,46.9,29.84,NNW,331,3.0,10.0,90,0.00,,---,0.00,134.00,VWS V14.01,2013-10-16 16:50:00,
2013-10-16 11:55:00,49.8,47.0,29.84,NW,325,0.0,10.0,90,0.00,,---,0.00,120.00,VWS V14.01,2013-10-16 16:55:00,
2013-10-16 12:00:00,49.9,46.8,29.85,WNW,294,2.0,4.0,89,0.00,,---,0.00,104.00,VWS V14.01,2013-10-16 17:00:00,
2013-10-16 12:05:00,50.0,46.9,29.85,NNE,16,1.0,9.0,89,0.00,,---,0.00,98.00,VWS V14.01,2013-10-16 17:05:00,
2013-10-16 12:10:00,50.0,46.9,29.85,NE,44,2.0,9.0,89,0.00,,---,0.00,88.00,VWS V14.01,2013-10-16 17:10:00,
2013-10-16 12:15:00,50.0,46.9,29.85,North,360,2.0,9.0,89,0.00,,---,0.00,95.00,VWS V14.01,2013-10-16 17:15:00,
2013-10-16 12:20:00,50.0,46.9,29.85,North,360,1.0,9.0,89,0.00,,---,0.00,97.00,VWS V14.01,2013-10-16 17:20:00,
2013-10-16 12:25:00,50.1,47.0,29.85,West,269,1.0,9.0,89,0.00,,---,0.00,169.00,VWS V14.01,2013-10-16 17:25:00,
2013-10-16 12:30:00,50.1,46.7,29.85,NW,320,1.0,9.0,88,0.00,,---,0.00,165.00,VWS V14.01,2013-10-16 17:30:00,
2013-10-16 12:35:00,50.3,46.9,29.85,West,261,5.0,9.0,88,0.00,,---,0.00,123.00,VWS V14.01,2013-10-16 17:35:00,
2013-10-16 12:40:00,50.4,47.0,29.85,West,264,0.0,9.0,88,0.00,,---,0.00,113.00,VWS V14.01,2013-10-16 17:40:00,
2013-10-16 12:45:00,50.5,46.8,29.85,WNW,288,2.0,9.0,87,0.00,,---,0.00,90.00,VWS V14.01,2013-10-16 17:45:00,
2013-10-16 12:50:00,50.7,47.0,29.85,WSW,250,1.0,9.0,87,0.00,,---,0.00,90.00,VWS V14.01,2013-10-16 17:50:00,
2013-10-16 12:55:00,50.7,47.0,29.85,NW,313,4.0,9.0,87,0.00,,---,0.00,114.00,VWS V14.01,2013-10-16 17:55:00,
2013-10-16 13:00:00,50.7,47.0,29.85,NNW,329,1.0,2.0,87,0.00,,---,0.00,91.00,VWS V14.01,2013-10-16 18:00:00,
2013-10-16 13:05:00,50.8,46.8,29.85,SW,228,0.0,5.0,86,0.00,,---,0.00,91.00,VWS V14.01,2013-10-16 18:05:00,
2013-10-16 13:10:00,50.9,46.9,29.85,North,360,0.0,5.0,86,0.00,,---,0.00,76.00,VWS V14.01,2013-10-16 18:10:00,
2013-10-16 13:15:00,50.9,46.9,29.85,WNW,291,1.0,5.0,86,0.00,,---,0.00,69.00,VWS V14.01,2013-10-16 18:15:00,
2013-10-16 13:20:00,50.9,46.9,29.85,WNW,299,2.0,5.0,86,0.00,,---,0.00,70.00,VWS V14.01,2013-10-16 18:20:00,
2013-10-16 13:25:00,50.8,46.8,29.85,NNW,336,2.0,5.0,86,0.00,,---,0.00,84.00,VWS V14.01,2013-10-16 18:25:00,
2013-10-16 13:27:00,50.8,46.8,29.85,NNW,331,1.0,5.0,86,0.00,,---,0.00,88.00,VWS V14.01,2013-10-16 18:27:00,
2013-10-16 13:32:00,50.9,46.9,29.85,WSW,250,1.0,5.0,86,0.00,,---,0.00,70.00,VWS V14.01,2013-10-16 18:32:00,
2013-10-16 13:37:00,50.9,46.9,29.85,WSW,254,0.0,5.0,86,0.00,,---,0.00,97.00,VWS V14.01,2013-10-16 18:37:00,
2013-10-16 13:42:00,50.9,46.9,29.85,WSW,257,2.0,5.0,86,0.00,,---,0.00,69.00,VWS V14.01,2013-10-16 18:42:00,
2013-10-16 13:47:00,51.0,47.0,29.85,West,261,0.0,5.0,86,0.00,,---,0.00,51.00,VWS V14.01,2013-10-16 18:47:00,
2013-10-16 13:52:00,50.9,46.9,29.85,NNW,340,3.0,5.0,86,0.00,,---,0.00,44.00,VWS V14.01,2013-10-16 18:52:00,
2013-10-16 13:57:00,50.9,46.9,29.85,WNW,289,1.0,5.0,86,0.00,,---,0.00,62.00,VWS V14.01,2013-10-16 18:57:00,
2013-10-16 14:00:00,50.8,46.5,29.85,NNW,347,3.0,5.0,85,0.00,,---,0.00,70.00,VWS V14.01,2013-10-16 19:00:00,
2013-10-16 14:02:00,50.7,46.4,29.85,North,5,1.0,4.0,85,0.00,,---,0.00,81.00,VWS V14.01,2013-10-16 19:02:00,
2013-10-16 14:07:00,50.7,46.4,29.85,North,9,2.0,4.0,85,0.00,,---,0.00,118.00,VWS V14.01,2013-10-16 19:07:00,
2013-10-16 14:12:00,50.8,46.5,29.85,North,355,1.0,4.0,85,0.00,,---,0.00,125.00,VWS V14.01,2013-10-16 19:12:00,
2013-10-16 14:17:00,50.9,46.6,29.85,South,173,3.0,4.0,85,0.00,,---,0.00,93.00,VWS V14.01,2013-10-16 19:17:00,
2013-10-16 14:22:00,51.0,46.7,29.85,NW,324,2.0,6.0,85,0.00,,---,0.00,46.00,VWS V14.01,2013-10-16 19:22:00,
2013-10-16 14:27:00,50.9,46.6,29.85,North,355,4.0,7.0,85,0.00,,---,0.00,42.00,VWS V14.01,2013-10-16 19:27:00,
2013-10-16 14:32:00,50.8,46.8,29.85,SSW,194,1.0,7.0,86,0.00,,---,0.00,44.00,VWS V14.01,2013-10-16 19:32:00,
2013-10-16 14:37:00,50.6,46.6,29.85,WSW,248,0.0,7.0,86,0.00,,---,0.00,44.00,VWS V14.01,2013-10-16 19:37:00,
2013-10-16 14:42:00,50.5,46.5,29.85,SSW,199,1.0,7.0,86,0.00,,---,0.00,46.00,VWS V14.01,2013-10-16 19:42:00,
2013-10-16 14:47:00,50.4,46.7,29.85,SSW,208,1.0,7.0,87,0.00,,---,0.00,47.00,VWS V14.01,2013-10-16 19:47:00,
2013-10-16 14:52:00,50.4,46.7,29.85,North,355,2.0,7.0,87,0.00,,---,0.00,51.00,VWS V14.01,2013-10-16 19:52:00,
2013-10-16 14:57:00,50.3,46.6,29.85,NE,43,1.0,7.0,87,0.00,,---,0.00,58.00,VWS V14.01,2013-10-16 19:57:00,
2013-10-16 15:00:00,50.3,46.6,29.85,SW,234,0.0,7.0,87,0.00,,---,0.00,58.00,VWS V14.01,2013-10-16 20:00:00,
2013-10-16 15:02:00,50.3,46.6,29.85,SW,234,0.0,2.0,87,0.00,,---,0.00,60.00,VWS V14.01,2013-10-16 20:02:00,
2013-10-16 15:07:00,50.3,46.6,29.85,WSW,246,0.0,5.0,87,0.00,,---,0.00,65.00,VWS V14.01,2013-10-16 20:07:00,
2013-10-16 15:12:00,50.1,46.4,29.85,NNW,327,1.0,5.0,87,0.00,,---,0.00,72.00,VWS V14.01,2013-10-16 20:12:00,
2013-10-16 15:17:00,50.1,46.4,29.86,WNW,296,0.0,5.0,87,0.00,,---,0.00,77.00,VWS V14.01,2013-10-16 20:17:00,
2013-10-16 15:22:00,50.2,46.5,29.86,West,261,0.0,5.0,87,0.00,,---,0.00,81.00,VWS V14.01,2013-10-16 20:22:00,
2013-10-16 15:27:00,50.2,46.5,29.86,WNW,297,1.0,5.0,87,0.00,,---,0.00,77.00,VWS V14.01,2013-10-16 20:27:00,
2013-10-16 15:32:00,50.3,46.6,29.86,NNE,20,0.0,5.0,87,0.00,,---,0.00,63.00,VWS V14.01,2013-10-16 20:32:00,
2013-10-16 15:37:00,50.3,46.6,29.86,NNW,337,0.0,5.0,87,0.00,,---,0.00,60.00,VWS V14.01,2013-10-16 20:37:00,
2013-10-16 15:42:00,50.4,46.7,29.86,NNW,337,0.0,5.0,87,0.00,,---,0.00,40.00,VWS V14.01,2013-10-16 20:42:00,
2013-10-16 15:47:00,50.4,46.7,29.86,NNW,327,0.0,5.0,87,0.00,,---,0.00,25.00,VWS V14.01,2013-10-16 20:47:00,
2013-10-16 15:52:00,50.3,46.6,29.86,WSW,242,2.0,5.0,87,0.00,,---,0.00,30.00,VWS V14.01,2013-10-16 20:52:00,
2013-10-16 15:57:00,50.1,46.7,29.86,WSW,257,0.0,5.0,88,0.00,,---,0.00,26.00,VWS V14.01,2013-10-16 20:57:00,
2013-10-16 16:00:00,50.1,46.7,29.86,WSW,257,0.0,5.0,88,0.00,,---,0.00,26.00,VWS V14.01,2013-10-16 21:00:00,
2013-10-16 16:02:00,50.0,46.9,29.86,WSW,257,1.0,2.0,89,0.00,,---,0.00,28.00,VWS V14.01,2013-10-16 21:02:00,
2013-10-16 16:07:00,49.9,46.8,29.86,WNW,291,0.0,4.0,89,0.00,,---,0.00,26.00,VWS V14.01,2013-10-16 21:07:00,
2013-10-16 16:12:00,49.8,47.0,29.86,NW,323,0.0,4.0,90,0.00,,---,0.00,25.00,VWS V14.01,2013-10-16 21:12:00,
2013-10-16 16:17:00,49.7,46.9,29.86,NW,314,0.0,4.0,90,0.00,,---,0.00,23.00,VWS V14.01,2013-10-16 21:17:00,
2013-10-16 16:22:00,49.6,46.8,29.86,NW,314,1.0,4.0,90,0.00,,---,0.00,23.00,VWS V14.01,2013-10-16 21:22:00,
2013-10-16 16:27:00,49.5,46.7,29.86,NW,314,0.0,4.0,90,0.00,,---,0.00,26.00,VWS V14.01,2013-10-16 21:27:00,
2013-10-16 16:32:00,49.4,46.9,29.86,NW,313,0.0,4.0,91,0.00,,---,0.00,30.00,VWS V14.01,2013-10-16 21:32:00,
2013-10-16 16:37:00,49.3,46.8,29.86,West,271,0.0,4.0,91,0.00,,---,0.00,33.00,VWS V14.01,2013-10-16 21:37:00,
2013-10-16 16:42:00,49.4,46.9,29.86,West,271,0.0,4.0,91,0.00,,---,0.00,26.00,VWS V14.01,2013-10-16 21:42:00,
2013-10-16 16:47:00,49.4,46.9,29.86,West,271,0.0,4.0,91,0.00,,---,0.00,28.00,VWS V14.01,2013-10-16 21:47:00,
2013-10-16 16:52:00,49.4,46.9,29.86,West,271,0.0,4.0,91,0.00,,---,0.00,30.00,VWS V14.01,2013-10-16 21:52:00,
2013-10-16 16:57:00,49.4,46.9,29.86,West,271,0.0,4.0,91,0.00,,---,0.00,25.00,VWS V14.01,2013-10-16 21:57:00,
2013-10-16 17:00:00,49.4,46.9,29.86,West,271,0.0,4.0,91,0.00,,---,0.00,25.00,VWS V14.01,2013-10-16 22:00:00,
2013-10-16 17:02:00,49.3,46.8,29.86,West,271,0.0,2.0,91,0.00,,---,0.00,25.00,VWS V14.01,2013-10-16 22:02:00,
2013-10-16 17:07:00,49.3,46.8,29.87,West,271,0.0,2.0,91,0.00,,---,0.00,23.00,VWS V14.01,2013-10-16 22:07:00,
2013-10-16 17:12:00,49.3,46.8,29.87,West,271,0.0,2.0,91,0.00,,---,0.00,23.00,VWS V14.01,2013-10-16 22:12:00,
2013-10-16 17:17:00,49.3,46.8,29.87,West,271,0.0,2.0,91,0.00,,---,0.00,19.00,VWS V14.01,2013-10-16 22:17:00,
2013-10-16 17:22:00,49.3,47.1,29.87,West,271,0.0,2.0,92,0.00,,---,0.00,18.00,VWS V14.01,2013-10-16 22:22:00,
2013-10-16 17:27:00,49.3,47.1,29.87,West,271,0.0,2.0,92,0.00,,---,0.00,16.00,VWS V14.01,2013-10-16 22:27:00,
2013-10-16 17:32:00,49.3,47.1,29.87,West,271,0.0,2.0,92,0.00,,---,0.00,7.00,VWS V14.01,2013-10-16 22:32:00,
2013-10-16 17:37:00,49.2,47.0,29.87,West,271,0.0,2.0,92,0.00,,---,0.00,0.00,VWS V14.01,2013-10-16 22:37:00,
2013-10-16 17:42:00,49.2,47.0,29.87,West,271,2.0,2.0,92,0.00,,---,0.00,0.00,VWS V14.01,2013-10-16 22:42:00,
2013-10-16 17:47:00,49.0,46.8,29.87,SW,229,2.0,3.0,92,0.00,,---,0.00,0.00,VWS V14.01,2013-10-16 22:47:00,
2013-10-16 17:52:00,49.0,46.8,29.87,SW,229,0.0,3.0,92,0.00,,---,0.00,0.00,VWS V14.01,2013-10-16 22:52:00,
2013-10-16 17:57:00,48.9,46.7,29.87,WNW,292,0.0,3.0,92,0.00,,---,0.00,0.00,VWS V14.01,2013-10-16 22:57:00,
2013-10-16 18:00:00,48.8,46.6,29.87,SW,232,1.0,3.0,92,0.00,,---,0.00,0.00,VWS V14.01,2013-10-16 23:00:00,
2013-10-16 18:02:00,48.8,46.6,29.87,NW,325,3.0,6.0,92,0.00,,---,0.00,0.00,VWS V14.01,2013-10-16 23:02:00,
2013-10-16 18:07:00,48.6,46.1,29.88,West,263,2.0,7.0,91,0.00,,---,0.00,0.00,VWS V14.01,2013-10-16 23:07:00,
2013-10-16 18:12:00,48.5,46.0,29.88,WNW,294,0.0,7.0,91,0.00,,---,0.00,0.00,VWS V14.01,2013-10-16 23:12:00,
2013-10-16 18:17:00,48.4,45.9,29.88,WNW,285,1.0,7.0,91,0.00,,---,0.00,0.00,VWS V14.01,2013-10-16 23:17:00,
2013-10-16 18:22:00,48.3,45.8,29.88,WNW,288,2.0,7.0,91,0.00,,---,0.00,0.00,VWS V14.01,2013-10-16 23:22:00,
2013-10-16 18:27:00,48.2,45.7,29.88,WSW,255,0.0,7.0,91,0.00,,---,0.00,0.00,VWS V14.01,2013-10-16 23:27:00,
2013-10-16 18:32:00,48.0,45.5,29.89,WNW,293,1.0,7.0,91,0.00,,---,0.00,0.00,VWS V14.01,2013-10-16 23:32:00,
2013-10-16 18:37:00,47.9,45.4,29.89,NNW,346,1.0,7.0,91,0.00,,---,0.00,0.00,VWS V14.01,2013-10-16 23:37:00,
2013-10-16 18:42:00,47.8,45.3,29.89,NNW,346,1.0,7.0,91,0.00,,---,0.00,0.00,VWS V14.01,2013-10-16 23:42:00,
2013-10-16 18:47:00,47.7,45.5,29.89,NNW,346,0.0,7.0,92,0.00,,---,0.00,0.00,VWS V14.01,2013-10-16 23:47:00,
2013-10-16 18:52:00,47.6,45.4,29.89,NNW,346,0.0,7.0,92,0.00,,---,0.00,0.00,VWS V14.01,2013-10-16 23:52:00,
2013-10-16 18:57:00,47.6,45.4,29.89,NNW,346,0.0,7.0,92,0.00,,---,0.00,0.00,VWS V14.01,2013-10-16 23:57:00,
2013-10-16 19:00:00,47.6,45.4,29.89,NNW,346,0.0,7.0,92,0.00,,---,0.00,0.00,VWS V14.01,2013-10-17 00:00:00,
2013-10-16 19:02:00,47.6,45.4,29.90,NNW,346,0.0,0.0,92,0.00,,---,0.00,0.00,VWS V14.01,2013-10-17 00:02:00,
2013-10-16 19:07:00,47.6,45.4,29.90,NNW,346,0.0,0.0,92,0.00,,---,0.00,0.00,VWS V14.01,2013-10-17 00:07:00,
2013-10-16 19:12:00,47.6,45.4,29.90,NNW,346,0.0,1.0,92,0.00,,---,0.00,0.00,VWS V14.01,2013-10-17 00:12:00,
2013-10-16 19:17:00,47.6,45.4,29.90,NNW,346,0.0,1.0,92,0.00,,---,0.00,0.00,VWS V14.01,2013-10-17 00:17:00,
2013-10-16 19:22:00,47.6,45.4,29.90,NNW,346,0.0,1.0,92,0.00,,---,0.00,0.00,VWS V14.01,2013-10-17 00:22:00,
2013-10-16 19:27:00,47.5,45.3,29.90,NNW,346,0.0,1.0,92,0.00,,---,0.00,0.00,VWS V14.01,2013-10-17 00:27:00,
2013-10-16 19:32:00,47.5,45.3,29.90,NNW,346,0.0,1.0,92,0.00,,---,0.00,0.00,VWS V14.01,2013-10-17 00:32:00,
2013-10-16 19:37:00,47.5,45.3,29.90,NNW,346,0.0,1.0,92,0.00,,---,0.00,0.00,VWS V14.01,2013-10-17 00:37:00,
2013-10-16 19:42:00,47.5,45.6,29.90,NNW,346,0.0,1.0,93,0.00,,---,0.00,0.00,VWS V14.01,2013-10-17 00:42:00,
2013-10-16 19:47:00,47.5,45.6,29.90,NNW,346,0.0,1.0,93,0.00,,---,0.00,0.00,VWS V14.01,2013-10-17 00:47:00,
2013-10-16 19:52:00,47.5,45.6,29.90,NNW,346,0.0,1.0,93,0.00,,---,0.00,0.00,VWS V14.01,2013-10-17 00:52:00,
2013-10-16 19:57:00,47.5,45.6,29.90,NNW,346,0.0,1.0,93,0.00,,---,0.00,0.00,VWS V14.01,2013-10-17 00:57:00,
2013-10-16 20:00:00,47.5,45.6,29.90,NNW,346,0.0,1.0,93,0.00,,---,0.00,0.00,VWS V14.01,2013-10-17 01:00:00,
2013-10-16 20:02:00,47.5,45.6,29.90,NNW,346,0.0,0.0,93,0.00,,---,0.00,0.00,VWS V14.01,2013-10-17 01:02:00,
2013-10-16 20:07:00,47.4,45.5,29.91,NNW,346,0.0,1.0,93,0.00,,---,0.00,0.00,VWS V14.01,2013-10-17 01:07:00,
2013-10-16 20:12:00,47.4,45.2,29.91,NNW,346,0.0,1.0,92,0.00,,---,0.00,0.00,VWS V14.01,2013-10-17 01:12:00,
2013-10-16 20:17:00,47.4,45.2,29.91,NNW,346,0.0,2.0,92,0.00,,---,0.00,0.00,VWS V14.01,2013-10-17 01:17:00,
2013-10-16 20:22:00,47.4,45.2,29.91,NNW,346,0.0,2.0,92,0.00,,---,0.00,0.00,VWS V14.01,2013-10-17 01:22:00,
2013-10-16 20:27:00,47.4,45.2,29.91,NNW,346,0.0,2.0,92,0.00,,---,0.00,0.00,VWS V14.01,2013-10-17 01:27:00,
2013-10-16 20:32:00,47.4,45.2,29.91,NNW,346,0.0,2.0,92,0.00,,---,0.00,0.00,VWS V14.01,2013-10-17 01:32:00,
2013-10-16 20:37:00,47.4,45.2,29.91,NNW,346,0.0,2.0,92,0.00,,---,0.00,0.00,VWS V14.01,2013-10-17 01:37:00,
2013-10-16 20:42:00,47.4,44.9,29.91,NNW,346,0.0,2.0,91,0.00,,---,0.00,0.00,VWS V14.01,2013-10-17 01:42:00,
2013-10-16 20:47:00,47.3,44.8,29.91,SW,234,1.0,3.0,91,0.00,,---,0.00,0.00,VWS V14.01,2013-10-17 01:47:00,
2013-10-16 20:52:00,47.3,44.8,29.91,WSW,244,0.0,3.0,91,0.00,,---,0.00,0.00,VWS V14.01,2013-10-17 01:52:00,
2013-10-16 20:57:00,47.3,44.8,29.91,WSW,244,0.0,3.0,91,0.00,,---,0.00,0.00,VWS V14.01,2013-10-17 01:57:00,
2013-10-16 21:00:00,47.4,44.9,29.91,WSW,244,0.0,3.0,91,0.00,,---,0.00,0.00,VWS V14.01,2013-10-17 02:00:00,
2013-10-16 21:02:00,47.3,44.5,29.91,NNW,336,0.0,3.0,90,0.00,,---,0.00,0.00,VWS V14.01,2013-10-17 02:02:00,
2013-10-16 21:07:00,47.3,44.5,29.91,WNW,303,2.0,5.0,90,0.00,,---,0.00,0.00,VWS V14.01,2013-10-17 02:07:00,
2013-10-16 21:12:00,47.3,44.2,29.91,NNE,30,2.0,5.0,89,0.00,,---,0.00,0.00,VWS V14.01,2013-10-17 02:12:00,
2013-10-16 21:17:00,47.3,43.9,29.91,NNW,330,0.0,5.0,88,0.00,,---,0.00,0.00,VWS V14.01,2013-10-17 02:17:00,
2013-10-16 21:22:00,47.3,43.9,29.91,NNW,331,0.0,5.0,88,0.00,,---,0.00,0.00,VWS V14.01,2013-10-17 02:22:00,
2013-10-16 21:27:00,47.3,43.9,29.91,NNW,331,0.0,5.0,88,0.00,,---,0.00,0.00,VWS V14.01,2013-10-17 02:27:00,
2013-10-16 21:32:00,47.3,43.9,29.91,NNW,331,0.0,5.0,88,0.00,,---,0.00,0.00,VWS V14.01,2013-10-17 02:32:00,
2013-10-16 21:37:00,47.3,43.9,29.92,NNW,331,0.0,5.0,88,0.00,,---,0.00,0.00,VWS V14.01,2013-10-17 02:37:00,
2013-10-16 21:42:00,47.3,43.9,29.91,NNW,346,0.0,5.0,88,0.00,,---,0.00,0.00,VWS V14.01,2013-10-17 02:42:00,
2013-10-16 21:47:00,47.2,43.5,29.92,North,5,3.0,5.0,87,0.00,,---,0.00,0.00,VWS V14.01,2013-10-17 02:47:00,
2013-10-16 21:52:00,47.2,43.5,29.92,North,355,2.0,5.0,87,0.00,,---,0.00,0.00,VWS V14.01,2013-10-17 02:52:00,
2013-10-16 21:57:00,47.2,43.5,29.92,NNW,343,0.0,5.0,87,0.00,,---,0.00,0.00,VWS V14.01,2013-10-17 02:57:00,
2013-10-16 22:00:00,47.2,43.5,29.92,NNW,343,0.0,5.0,87,0.00,,---,0.00,0.00,VWS V14.01,2013-10-17 03:00:00,
2013-10-16 22:02:00,47.2,43.5,29.91,NNW,343,1.0,1.0,87,0.00,,---,0.00,0.00,VWS V14.01,2013-10-17 03:02:00,
2013-10-16 22:07:00,47.1,43.4,29.91,North,360,0.0,3.0,87,0.00,,---,0.00,0.00,VWS V14.01,2013-10-17 03:07:00,
2013-10-16 22:12:00,47.1,43.4,29.91,NW,313,0.0,3.0,87,0.00,,---,0.00,0.00,VWS V14.01,2013-10-17 03:12:00,
2013-10-16 22:17:00,47.1,43.4,29.91,NW,313,0.0,3.0,87,0.00,,---,0.00,0.00,VWS V14.01,2013-10-17 03:17:00,
2013-10-16 22:22:00,47.0,43.3,29.91,NW,313,0.0,3.0,87,0.00,,---,0.00,0.00,VWS V14.01,2013-10-17 03:22:00,
2013-10-16 22:27:00,47.0,43.6,29.92,NW,314,0.0,3.0,88,0.00,,---,0.00,0.00,VWS V14.01,2013-10-17 03:27:00,
2013-10-16 22:32:00,47.0,43.6,29.92,NW,313,0.0,3.0,88,0.00,,---,0.00,0.00,VWS V14.01,2013-10-17 03:32:00,
2013-10-16 22:37:00,46.9,43.5,29.92,NW,313,0.0,3.0,88,0.00,,---,0.00,0.00,VWS V14.01,2013-10-17 03:37:00,
2013-10-16 22:42:00,46.9,43.5,29.92,NW,313,0.0,3.0,88,0.00,,---,0.00,0.00,VWS V14.01,2013-10-17 03:42:00,
2013-10-16 22:47:00,46.9,43.5,29.92,NW,313,0.0,3.0,88,0.00,,---,0.00,0.00,VWS V14.01,2013-10-17 03:47:00,
2013-10-16 22:52:00,46.9,43.5,29.92,NW,313,0.0,3.0,88,0.00,,---,0.00,0.00,VWS V14.01,2013-10-17 03:52:00,
2013-10-16 22:57:00,46.8,43.4,29.92,NW,313,0.0,3.0,88,0.00,,---,0.00,0.00,VWS V14.01,2013-10-17 03:57:00,
2013-10-16 23:00:00,46.8,43.7,29.92,NW,314,0.0,3.0,89,0.00,,---,0.00,0.00,VWS V14.01,2013-10-17 04:00:00,
2013-10-16 23:01:00,46.8,43.7,29.92,NW,313,0.0,1.0,89,0.00,,---,0.00,0.00,VWS V14.01,2013-10-17 04:01:00,
2013-10-16 23:06:00,46.7,43.6,29.92,NW,313,0.0,1.0,89,0.00,,---,0.00,0.00,VWS V14.01,2013-10-17 04:06:00,
2013-10-16 23:11:00,46.7,43.6,29.91,NW,313,0.0,1.0,89,0.00,,---,0.00,0.00,VWS V14.01,2013-10-17 04:11:00,
2013-10-16 23:16:00,46.6,43.5,29.91,NW,313,0.0,1.0,89,0.00,,---,0.00,0.00,VWS V14.01,2013-10-17 04:16:00,
2013-10-16 23:21:00,46.6,43.5,29.91,NW,314,0.0,1.0,89,0.00,,---,0.00,0.00,VWS V14.01,2013-10-17 04:21:00,
2013-10-16 23:26:00,46.5,43.7,29.91,NW,313,0.0,1.0,90,0.00,,---,0.00,0.00,VWS V14.01,2013-10-17 04:26:00,
2013-10-16 23:31:00,46.4,43.6,29.91,NW,313,0.0,1.0,90,0.00,,---,0.00,0.00,VWS V14.01,2013-10-17 04:31:00,
2013-10-16 23:36:00,46.4,43.6,29.91,NW,313,0.0,1.0,90,0.00,,---,0.00,0.00,VWS V14.01,2013-10-17 04:36:00,
2013-10-16 23:41:00,46.3,43.5,29.91,NW,313,0.0,1.0,90,0.00,,---,0.00,0.00,VWS V14.01,2013-10-17 04:41:00,
2013-10-16 23:46:00,46.3,43.5,29.91,NW,314,0.0,1.0,90,0.00,,---,0.00,0.00,VWS V14.01,2013-10-17 04:46:00,
2013-10-16 23:51:00,46.2,43.4,29.91,NW,313,0.0,1.0,90,0.00,,---,0.00,0.00,VWS V14.01,2013-10-17 04:51:00,
2013-10-16 23:56:00,46.2,43.4,29.90,NW,313,0.0,1.0,90,0.00,,---,0.00,0.00,VWS V14.01,2013-10-17 04:56:00,